DW8689 Weather Reports


time (UTC)temp
C
wind
direction
speed
KPH
gust
KPH
rain 1hr
cm
rain 24hr
cm
rain mn
cm
humidity
%
barometer
mb
20260508142511 11 33 6.4 14.5 0.00 0.00 0.00 64 1012.8
20260508142011 11 37 6.4 17.7 0.00 0.00 0.00 63 1012.8
20260508141512 12 40 6.4 17.7 0.00 0.00 0.00 62 1012.7
20260508141011 12 40 6.4 16.1 0.00 0.00 0.00 62 1012.7
20260508140511 12 40 6.4 16.1 0.00 0.00 0.00 62 1012.7
20260508140012 12 43 4.8 12.9 0.00 0.00 0.00 61 1012.6
20260508135510 12 41 6.4 14.5 0.00 0.00 0.00 62 1012.6
20260508135011 13 35 6.4 14.5 0.00 0.00 0.00 63 1012.5
20260508134510 13 38 6.4 12.9 0.00 0.00 0.00 62 1012.5
20260508134011 13 41 4.8 12.9 0.00 0.00 0.00 60 1012.5
20260508133011 13 41 4.8 14.5 0.00 0.00 0.00 61 1012.5
20260508132012 12 47 6.4 12.9 0.00 0.00 0.00 63 1012.4
20260508131012 12 48 6.4 19.3 0.00 0.00 0.00 64 1012.4
20260508130510 12 44 8.0 19.3 0.00 0.00 0.00 65 1012.3
20260508130011 11 41 6.4 12.9 0.00 0.00 0.00 65 1012.3
20260508125511 12 45 6.4 12.9 0.00 0.00 0.00 64 1012.2
20260508125011 12 47 4.8 12.9 0.00 0.00 0.00 64 1012.3
20260508124511 11 39 4.8 9.7 0.00 0.00 0.00 64 1012.2
20260508124011 11 34 4.8 9.7 0.00 0.00 0.00 63 1012.2
20260508123511 12 40 4.8 14.5 0.00 0.00 0.00 64 1012.2
20260508122011 11 42 4.8 14.5 0.00 0.03 0.00 66 1012.1
20260508121510 11 39 4.8 14.5 0.00 0.03 0.00 66 1012.2
20260508121011 11 38 4.8 12.9 0.00 0.03 0.00 67 1012.2
20260508120511 11 39 4.8 11.3 0.00 0.03 0.00 67 1012.1
20260508120012 11 40 4.8 11.3 0.00 0.03 0.00 68 1012.1
20260508115511 11 40 4.8 14.5 0.00 0.03 0.00 68 1012.1
20260508115011 11 38 6.4 14.5 0.00 0.03 0.00 68 1012.1
20260508113511 11 42 9.7 9.7 0.00 0.03 0.00 72 1012.1
20260508113011 10 42 9.7 9.7 0.00 0.03 0.00 71 1012.0
20260508112510 10 42 9.7 9.7 0.00 0.03 0.00 71 1012.0
20260508112011 10 47 4.8 8.0 0.00 0.03 0.00 71 1011.9
20260508111510 11 47 4.8 8.0 0.00 0.03 0.00 70 1011.8
20260508110511 11 47 4.8 8.0 0.00 0.03 0.00 68 1011.8
20260508110010 11 47 4.8 8.0 0.00 0.03 0.00 68 1011.7
20260508105509 11 47 4.8 8.0 0.00 0.03 0.00 68 1011.8
20260508105011 11 47 4.8 8.0 0.00 0.03 0.00 68 1011.7
20260508104511 11 47 4.8 8.0 0.00 0.03 0.00 68 1011.7
20260508104012 11 47 4.8 8.0 0.00 0.03 0.00 74 1011.7
20260508103511 11 47 4.8 8.0 0.00 0.03 0.00 74 1011.7
20260508103011 11 47 4.8 8.0 0.00 0.03 0.00 74 1011.7
20260508102511 11 47 4.8 8.0 0.00 0.03 0.00 74 1011.6
20260508102011 11 47 4.8 8.0 0.00 0.03 0.00 74 1011.6
20260508101510 11 47 4.8 8.0 0.00 0.03 0.00 74 1011.6
20260508101011 10 47 4.8 8.0 0.00 0.03 0.00 74 1011.6
20260508100511 10 47 4.8 8.0 0.00 0.03 0.00 74 1011.6
20260508100011 10 48 4.8 8.0 0.00 0.03 0.00 74 1011.5
20260508095511 10 49 3.2 8.0 0.00 0.03 0.00 76 1011.5
20260508095011 10 42 4.8 9.7 0.00 0.03 0.00 76 1011.5
20260508094510 10 39 4.8 9.7 0.00 0.03 0.00 76 1011.5
20260508094011 10 43 4.8 9.7 0.00 0.03 0.00 79 1011.5
20260508093510 10 43 4.8 9.7 0.00 0.03 0.00 79 1011.4
20260508092511 10 46 4.8 9.7 0.00 0.03 0.00 80 1011.3
20260508092011 10 48 3.2 8.0 0.00 0.03 0.00 82 1011.3
20260508091510 10 50 3.2 8.0 0.00 0.03 0.00 83 1011.3
20260508091011 10 47 3.2 9.7 0.00 0.03 0.00 84 1011.3
20260508090510 10 40 3.2 9.7 0.00 0.03 0.00 84 1011.3
20260508090012 9 52 3.2 9.7 0.00 0.03 0.00 85 1011.2
20260508085511 9 54 4.8 8.0 0.00 0.03 0.00 85 1011.2
20260508085011 9 43 4.8 11.3 0.00 0.03 0.00 85 1011.2
20260508084510 9 40 4.8 11.3 0.00 0.03 0.00 86 1011.2
20260508084011 9 44 3.2 8.0 0.00 0.03 0.00 86 1011.1
20260508083010 9 42 3.2 8.0 0.00 0.03 0.00 87 1011.1
20260508082511 9 47 3.2 8.0 0.00 0.03 0.00 88 1011.1
20260508081511 8 41 3.2 9.7 0.00 0.03 0.00 88 1011.0
20260508081011 8 48 3.2 6.4 0.00 0.03 0.00 89 1011.0
20260508080511 8 43 3.2 6.4 0.00 0.03 0.00 89 1010.9
20260508080011 8 37 3.2 6.4 0.00 0.03 0.00 89 1010.9
20260508075510 8 48 1.6 4.8 0.00 0.03 0.00 89 1010.8
20260508075011 8 45 3.2 8.0 0.00 0.03 0.00 90 1010.8
20260508074511 8 38 3.2 8.0 0.00 0.03 0.00 89 1010.7
20260508073511 7 40 1.6 6.4 0.00 0.03 0.00 90 1010.6
20260508073011 7 41 1.6 4.8 0.00 0.03 0.00 90 1010.5
20260508072511 7 39 1.6 6.4 0.00 0.03 0.00 90 1010.5
20260508072011 7 33 1.6 6.4 0.00 0.03 0.00 90 1010.5
20260508071511 7 0 0.0 0.0 0.00 0.03 0.00 90 1010.3
20260508071011 7 0 0.0 0.0 0.00 0.03 0.00 90 1010.3
20260508070011 7 346 0.0 3.2 0.00 0.03 0.00 90 1010.1
20260508065011 7 0 0.0 0.0 0.00 0.03 0.00 90 1010.0
20260508064510 7 0 0.0 0.0 0.00 0.03 0.00 90 1010.0
20260508064011 7 0 0.0 0.0 0.00 0.03 0.00 90 1009.9
20260508063510 7 0 0.0 0.0 0.00 0.03 0.00 90 1009.9
20260508063011 7 0 0.0 0.0 0.00 0.03 0.00 90 1009.8
20260508062510 7 0 0.0 0.0 0.00 0.03 0.00 90 1009.7
20260508061511 6 0 0.0 0.0 0.00 0.03 0.00 90 1009.7
20260508060510 6 0 0.0 0.0 0.00 0.03 0.00 90 1009.6
20260508060011 6 0 0.0 0.0 0.00 0.03 0.00 90 1009.5
20260508055510 6 0 0.0 0.0 0.00 0.03 0.00 90 1009.4
20260508055010 6 0 0.0 0.0 0.00 0.03 0.00 90 1009.4
20260508054010 6 0 0.0 0.0 0.00 0.03 0.00 90 1009.3
20260508053510 6 0 0.0 0.0 0.00 0.03 0.00 90 1009.2
20260508052511 6 0 0.0 0.0 0.00 0.03 0.00 90 1009.3
20260508052011 6 0 0.0 0.0 0.00 0.03 0.00 90 1009.2
20260508051510 6 0 0.0 0.0 0.00 0.03 0.00 90 1009.2
20260508050510 6 0 0.0 0.0 0.00 0.03 0.00 90 1009.1
20260508045511 6 0 0.0 0.0 0.00 0.03 0.00 90 1009.1
20260508045011 6 0 0.0 0.0 0.00 0.03 0.00 90 1009.1
20260508044511 6 0 0.0 0.0 0.00 0.03 0.00 89 1009.1
20260508044010 6 0 0.0 0.0 0.00 0.03 0.00 89 1009.0
20260508043011 6 0 0.0 0.0 0.00 0.03 0.00 89 1008.9
20260508042511 6 0 0.0 0.0 0.00 0.03 0.00 89 1008.9
20260508042011 6 0 0.0 0.0 0.00 0.03 0.00 89 1008.9
20260508041011 6 0 0.0 0.0 0.00 0.03 0.00 89 1008.7
20260508040510 6 0 0.0 0.0 0.00 0.03 0.00 89 1008.7
20260508040011 6 0 0.0 0.0 0.00 0.03 0.00 89 1008.7
20260508035510 6 0 0.0 0.0 0.00 0.03 0.00 89 1008.7
20260508035010 6 0 0.0 0.0 0.00 0.03 0.00 89 1008.7
20260508034510 6 0 0.0 0.0 0.00 0.03 0.00 89 1008.7
20260508034010 6 0 0.0 0.0 0.00 0.03 0.00 89 1008.7
20260508033011 6 0 0.0 0.0 0.00 0.03 0.00 89 1008.7
20260508032510 6 0 0.0 0.0 0.00 0.03 0.00 89 1008.6
20260508032011 6 0 0.0 0.0 0.00 0.03 0.00 89 1008.6
20260508031511 6 0 0.0 0.0 0.00 0.03 0.00 89 1008.6
20260508031011 6 0 0.0 0.0 0.00 0.03 0.00 89 1008.6
20260508030511 6 0 0.0 0.0 0.00 0.03 0.00 89 1008.6
20260508030011 6 0 0.0 0.0 0.00 0.03 0.00 89 1008.6
20260508025011 6 0 0.0 0.0 0.00 0.03 0.00 89 1008.5
20260508024011 6 0 0.0 0.0 0.00 0.03 0.00 89 1008.5
20260508023511 6 0 0.0 0.0 0.00 0.03 0.00 89 1008.5
20260508023010 6 0 0.0 0.0 0.00 0.03 0.00 89 1008.4
20260508022511 6 0 0.0 0.0 0.00 0.03 0.00 89 1008.4
20260508021510 6 0 0.0 0.0 0.00 0.03 0.00 89 1008.3
20260508021011 6 0 0.0 0.0 0.00 0.03 0.00 89 1008.3
20260508020510 6 0 0.0 0.0 0.00 0.03 0.00 89 1008.3
20260508020011 7 0 0.0 0.0 0.00 0.03 0.00 89 1008.3
20260508015511 6 0 0.0 0.0 0.00 0.03 0.00 89 1008.2
20260508015011 7 0 0.0 0.0 0.00 0.03 0.00 89 1008.2
20260508014510 7 0 0.0 0.0 0.00 0.03 0.00 89 1008.2
20260508014011 7 0 0.0 0.0 0.00 0.03 0.00 89 1008.2
20260508013511 7 0 0.0 0.0 0.00 0.03 0.00 89 1008.2
20260508013011 7 0 0.0 0.0 0.00 0.03 0.00 88 1008.2
20260508012010 7 0 0.0 0.0 0.00 0.03 0.00 88 1008.2
20260508011510 7 0 0.0 0.0 0.00 0.03 0.00 88 1008.2
20260508011010 7 0 0.0 0.0 0.00 0.03 0.00 88 1008.2
20260508010011 7 0 0.0 0.0 0.00 0.03 0.00 88 1008.3
20260508005511 7 0 0.0 0.0 0.00 0.03 0.00 88 1008.2
20260508005011 7 0 0.0 0.0 0.00 0.03 0.00 88 1008.3
20260508004011 7 0 0.0 0.0 0.00 0.03 0.00 88 1008.2
20260508003511 7 0 0.0 0.0 0.00 0.03 0.00 88 1008.2
20260508002511 7 0 0.0 0.0 0.00 0.03 0.00 88 1008.2
20260508002011 7 0 0.0 0.0 0.00 0.03 0.00 88 1008.2
20260508001510 7 0 0.0 0.0 0.00 0.03 0.00 88 1008.1
20260508001010 7 0 0.0 0.0 0.00 0.03 0.00 88 1008.1
20260508000511 7 0 0.0 0.0 0.00 0.03 0.00 87 1008.2
20260507235511 7 266 0.0 4.8 0.00 0.03 0.00 87 1008.1
20260507235011 7 266 0.0 4.8 0.00 0.03 0.00 87 1008.1
20260507233011 7 265 1.6 4.8 0.00 0.03 0.00 87 1008.1
20260507231511 7 257 1.6 4.8 0.00 0.03 0.00 86 1008.0
20260507231011 7 251 1.6 6.4 0.00 0.03 0.00 86 1008.0
20260507230510 7 251 1.6 6.4 0.00 0.03 0.00 86 1008.0
20260507230013 7 255 1.6 4.8 0.00 0.03 0.00 86 1008.0
20260507225511 7 255 0.0 4.8 0.00 0.03 0.03 86 1007.9
20260507225010 7 0 0.0 0.0 0.00 0.03 0.03 85 1007.9
20260507224010 7 0 0.0 0.0 0.00 0.03 0.03 85 1007.8
20260507223010 7 0 0.0 0.0 0.00 0.03 0.03 85 1007.7
20260507222511 7 0 0.0 0.0 0.00 0.03 0.03 86 1007.7
20260507222011 7 0 0.0 0.0 0.00 0.03 0.03 86 1007.7
20260507221510 7 0 0.0 0.0 0.00 0.03 0.03 86 1007.7
20260507221011 7 0 0.0 0.0 0.00 0.03 0.03 86 1007.7
20260507220510 7 0 0.0 0.0 0.00 0.03 0.03 86 1007.6
20260507220011 7 0 0.0 0.0 0.00 0.03 0.03 86 1007.5
20260507215011 7 0 0.0 0.0 0.00 0.03 0.03 86 1007.6
20260507214510 7 0 0.0 0.0 0.00 0.03 0.03 86 1007.5
20260507214011 7 0 0.0 0.0 0.00 0.03 0.03 86 1007.6
20260507213010 7 0 0.0 0.0 0.00 0.03 0.03 86 1007.4
20260507212510 7 0 0.0 0.0 0.00 0.03 0.03 86 1007.4
20260507212011 7 0 0.0 0.0 0.00 0.03 0.03 86 1007.3
20260507211511 7 0 0.0 0.0 0.00 0.03 0.03 86 1007.4
20260507211012 7 0 0.0 0.0 0.00 0.03 0.03 86 1007.4
20260507210510 7 0 0.0 0.0 0.00 0.03 0.03 86 1007.4
20260507210011 7 0 0.0 0.0 0.00 0.03 0.03 86 1007.3
20260507205511 7 257 0.0 1.6 0.00 0.03 0.03 86 1007.3
20260507204011 7 265 1.6 4.8 0.00 0.03 0.03 85 1007.1
20260507203011 7 270 1.6 4.8 0.00 0.03 0.03 85 1006.9
20260507202510 8 266 1.6 4.8 0.00 0.03 0.03 84 1006.9
20260507202011 8 263 1.6 4.8 0.00 0.03 0.03 84 1006.9
20260507201511 8 265 1.6 4.8 0.00 0.03 0.03 84 1006.9
20260507201011 8 267 1.6 4.8 0.00 0.03 0.03 84 1006.9
20260507200511 8 267 1.6 4.8 0.00 0.03 0.03 83 1006.8
20260507195511 8 266 1.6 4.8 0.00 0.03 0.03 83 1006.8
20260507195011 8 266 1.6 8.0 0.00 0.03 0.03 82 1006.7
20260507194510 8 259 3.2 8.0 0.00 0.03 0.03 82 1006.6
20260507194010 8 256 3.2 8.0 0.00 0.03 0.03 82 1006.5
20260507193510 8 255 3.2 9.7 0.00 0.03 0.03 82 1006.5
20260507193011 9 254 3.2 9.7 0.00 0.03 0.03 82 1006.4
20260507192511 9 254 3.2 8.0 0.00 0.03 0.03 81 1006.5
20260507192011 9 258 3.2 8.0 0.00 0.03 0.03 81 1006.5
20260507191510 9 262 3.2 8.0 0.00 0.03 0.03 81 1006.4
20260507191010 9 257 3.2 8.0 0.00 0.03 0.03 81 1006.4
20260507190510 9 256 3.2 8.0 0.00 0.03 0.03 81 1006.3
20260507190010 9 258 3.2 9.7 0.00 0.03 0.03 81 1006.3
20260507185510 9 257 4.8 9.7 0.00 0.03 0.03 81 1006.3
20260507185011 10 259 3.2 8.0 0.00 0.03 0.03 81 1006.2
20260507184011 10 266 3.2 8.0 0.00 0.03 0.03 81 1006.1
20260507183510 10 266 3.2 6.4 0.00 0.03 0.03 81 1006.1
20260507183010 10 263 3.2 8.0 0.00 0.03 0.03 81 1006.1
20260507182510 10 264 3.2 9.7 0.00 0.03 0.03 81 1006.0
20260507181511 10 256 4.8 11.3 0.00 0.03 0.03 81 1006.0
20260507180510 10 266 4.8 8.0 0.00 0.03 0.03 81 1006.0
20260507180011 10 267 4.8 8.0 0.00 0.03 0.03 80 1005.9
20260507175511 10 278 3.2 6.4 0.00 0.03 0.03 80 1005.9
20260507175010 10 278 3.2 6.4 0.00 0.03 0.03 78 1005.9
20260507174010 10 268 1.6 6.4 0.00 0.03 0.03 77 1005.8
20260507173510 10 266 3.2 9.7 0.00 0.03 0.03 77 1005.8
20260507173011 10 265 4.8 9.7 0.00 0.03 0.03 75 1005.7
20260507172511 11 269 3.2 9.7 0.00 0.03 0.03 75 1005.8
20260507171509 11 262 4.8 12.9 0.00 0.03 0.03 73 1005.8
20260507171011 11 255 8.0 12.9 0.00 0.03 0.03 72 1005.7
20260507170511 11 253 6.4 12.9 0.00 0.03 0.03 70 1005.6
20260507170011 11 247 6.4 11.3 0.00 0.03 0.03 70 1005.7
20260507165010 11 239 6.4 14.5 0.00 0.03 0.03 69 1005.7
20260507164011 12 242 4.8 11.3 0.00 0.03 0.03 70 1005.6
20260507162510 12 243 6.4 14.5 0.00 0.03 0.03 72 1005.6
20260507162010 12 235 4.8 14.5 0.00 0.03 0.03 73 1005.6
20260507161510 12 236 6.4 14.5 0.00 0.03 0.03 75 1005.6
20260507161011 11 227 6.4 11.3 0.00 0.03 0.03 74 1005.6
20260507160511 11 230 6.4 11.3 0.00 0.03 0.03 74 1005.5
20260507160011 11 223 6.4 19.3 0.00 0.03 0.03 73 1005.5
20260507155510 11 223 6.4 19.3 0.00 0.03 0.03 75 1005.5
20260507155011 11 237 8.0 19.3 0.00 0.03 0.03 75 1005.5
20260507154510 11 250 6.4 19.3 0.00 0.03 0.03 74 1005.5
20260507152510 12 228 6.4 16.1 0.00 0.03 0.03 68 1005.4
20260507152010 12 230 6.4 12.9 0.00 0.03 0.03 66 1005.4
20260507151011 13 226 6.4 17.7 0.00 0.03 0.03 65 1005.4
20260507150510 13 218 6.4 17.7 0.00 0.03 0.03 65 1005.4
20260507145010 12 218 4.8 14.5 0.00 0.03 0.03 65 1005.5
20260507144510 12 205 4.8 12.9 0.00 0.03 0.03 65 1005.5
20260507144010 13 205 8.0 25.7 0.00 0.03 0.03 66 1005.5
20260507143511 12 205 8.0 25.7 0.00 0.03 0.03 66 1005.5
20260507143010 12 205 8.0 25.7 0.00 0.03 0.03 66 1005.5